{"data":{"norad_id":67516,"epoch":"2026-09-19T19:45:29.154240Z","epoch_age_seconds":130737,"freshness":"FRESH","line1":"1 67516U 26012Z   26262.82325410  .00007427  00000+0  27914-3 0  9994","line2":"2 67516  43.0037 297.8952 0001571 274.2465  85.8208 15.27578298 37454","mean_motion":15.27578298,"eccentricity":0.0001571,"inclination_deg":43.0037,"raan_deg":297.8952,"arg_perigee_deg":274.2465,"mean_anomaly_deg":85.8208,"bstar":0.00027914,"rev_number":3745,"period_min":94.266853743951,"perigee_km":481.97629930834,"apogee_km":484.13208558101,"semimajor_km":6861.1911924447,"source":"CELESTRAK","updated_at":"2026-09-20T09:00:43.563017Z"}}